This is the latest recevied weather packets stored in our database for station/object MKSRDG. If no packets are shown the sender has not sent any weather packets the latest 10 day(s).
| Time | Temp. | Humidity | Pressure | Rain* | Wind** | Luminosity | Snow |
|---|---|---|---|---|---|---|---|
| 1777873190 | 19.44° C | 70% | 1007.7 hPa | 0 mm | - | 0 W/m² | - |
| 1777872290 | 20° C | 66% | 1007.5 hPa | 0 mm | - | 0 W/m² | - |
| 1777871390 | 20.56° C | 65% | 1007.4 hPa | 0 mm | - | 0 W/m² | - |
| 1777870490 | 20.56° C | 62% | 1007.2 hPa | 0 mm | - | 0 W/m² | - |
| 1777869590 | 22.22° C | 58% | 1007.2 hPa | 0 mm | - | 0 W/m² | - |
| 1777868690 | 22.22° C | 56% | 1007 hPa | 0 mm | - | 0 W/m² | - |
| 1777867790 | 22.22° C | 56% | 1006.8 hPa | 0 mm | - | 0 W/m² | - |
| 1777866890 | 22.78° C | 55% | 1006.6 hPa | 0 mm | - | 0 W/m² | - |
| 1777865991 | 22.78° C | 54% | 1006.5 hPa | 0 mm | - | 0 W/m² | - |
| 1777865090 | 22.78° C | 53% | 1006.5 hPa | 0 mm | - | 0 W/m² | - |
| 1777864190 | 23.33° C | 52% | 1006.4 hPa | 0 mm | - | 12 W/m² | - |
| 1777863291 | 23.89° C | 49% | 1006.3 hPa | 0 mm | - | 28 W/m² | - |
| 1777862391 | 24.44° C | 51% | 1006.3 hPa | 0 mm | - | 60 W/m² | - |
| 1777861491 | 25° C | 50% | 1006.4 hPa | 0 mm | - | 113 W/m² | - |
| 1777860591 | 25.56° C | 48% | 1006.5 hPa | 0 mm | - | 172 W/m² | - |
| 1777859691 | 25° C | 48% | 1006.5 hPa | 0 mm | - | 160 W/m² | - |
| 1777858791 | 25.56° C | 47% | 1006.6 hPa | 0 mm | - | 121 W/m² | - |
| 1777857891 | 26.67° C | 44% | 1006.7 hPa | 0 mm | - | 359 W/m² | - |
| 1777856991 | 26.67° C | 49% | 1006.7 hPa | 0 mm | - | 445 W/m² | - |
| 1777856091 | 26.11° C | 46% | 1006.9 hPa | 0 mm | - | 174 W/m² | - |
| 1777855191 | 25.56° C | 48% | 1006.9 hPa | 0 mm | - | 476 W/m² | - |
| 1777854291 | 25° C | 48% | 1006.9 hPa | 0 mm | - | 213 W/m² | - |
| 1777853391 | 25° C | 49% | 1006.9 hPa | 0 mm | - | 225 W/m² | - |
| 1777852491 | 25° C | 51% | 1007 hPa | 0 mm | - | 251 W/m² | - |
| 1777851591 | 25° C | 51% | 1007 hPa | 0 mm | - | 244 W/m² | - |
* Rain latest hour (hover to see other rain measurements)
** Current wind speed in m/s (hover to see current wind gust speed)